Classement Corrida 2016

Classement Corrida d’Aywaille 2016

PlaceDossardNomPreŽnomSexePl./S.CatŽgoriePl./Cat.TempsVitesseMoyenne
1644DA SILVALucasM1EG100:33:3617,857 km/h00:03:22
2623CHARNIERChristianM2SE100:34:4817,241 km/h00:03:29
3881FUDVOYEThibautM3SE200:35:4216,807 km/h00:03:34
4663DEGEYBriceM4EG200:36:3916,371 km/h00:03:40
5969DEVILLEMathieuM5SE300:36:5816,231 km/h00:03:42
6637LEJEUNEBernardM6V1100:36:5816,231 km/h00:03:42
7868GERARDXavierM7SE400:38:3415,557 km/h00:03:51
8942THINESThomasM8EG300:39:0315,365 km/h00:03:54
9988JACOBChristopheM9SE500:39:2815,203 km/h00:03:57
10603D AVELINOMichaelM10V1200:39:3315,171 km/h00:03:57
11946GONAYJeromeM11SE600:39:3615,152 km/h00:03:58
12939BASTINThibaultM12SE700:40:1214,925 km/h00:04:01
13957LAVALLouisM13EG400:40:1714,894 km/h00:04:02
14931NEUTELEERSEricM14V2100:40:2114,870 km/h00:04:02
15919PIRONTBenoitM15SE800:40:2914,821 km/h00:04:03
16813JAMARTGuillaumeM16SE900:40:4914,700 km/h00:04:05
17876STRAUVENMartinM17SE1000:41:2014,516 km/h00:04:08
18656DORTUFrancoisM18SE1100:41:3114,452 km/h00:04:09
19631LEMAIREChristopheM19V1300:41:3414,435 km/h00:04:09
20655BENOITNicolasM20SE1200:41:4214,388 km/h00:04:10
21977LEMAIRELudovicM21SE1300:41:4814,354 km/h00:04:11
22616HAOOCHINEHassnM22V1400:42:0014,286 km/h00:04:12
23810DARTETLaurentM23SE1400:42:2914,123 km/h00:04:15
24680STRYKERSFrancoisM24SE1500:42:3314,101 km/h00:04:15
25867THIRIFAYSDelphineF1DA100:42:3614,085 km/h00:04:16
26820DOSSARDN820M25HC100:42:4014,063 km/h00:04:16
27952COIRAZZALaurentM26SE1600:42:4414,041 km/h00:04:16
28940LOURTIEBertrandM27SE1700:42:5513,981 km/h00:04:18
29993DEBIOLLEVincentM28V1500:43:0513,926 km/h00:04:19
30620GEORISSebastienM29SE1800:43:2513,820 km/h00:04:21
31922MANFREDINITiberM30V1600:43:3613,761 km/h00:04:22
32924LEROYMatthewM31SE1900:43:5313,673 km/h00:04:23
33954FRANKINETPierreM32V1700:43:5913,642 km/h00:04:24
34947FERNANDESPedroM33SE2000:44:0013,636 km/h00:04:24
35864LEMAIREOlivierM34SE2100:44:0313,621 km/h00:04:24
36890BARNABEMichelM35V2200:44:1213,575 km/h00:04:25
37883DONNEAUXAlexM36EG500:44:1813,544 km/h00:04:26
38976LEMAIREMichaelM37SE2200:44:4013,433 km/h00:04:28
39912MOLLERSSebastienM38SE2300:44:4113,428 km/h00:04:28
40970JACQUEMINMelanieF2DA200:45:2213,226 km/h00:04:32
41662LIGOTAnthonyM39SE2400:45:3813,148 km/h00:04:34
42705VAN HARENJean-CharlesM40SE2500:45:5013,091 km/h00:04:35
43865THEMLINLaurentM41SE2600:45:5613,062 km/h00:04:36
44640WAUTERSFredericM42V1800:46:0213,034 km/h00:04:36
45880CLOOSNicolasM43EG600:46:0913,001 km/h00:04:37
46653FRANCISEPatrickM44V1900:46:1212,987 km/h00:04:37
47650DETAILLEDavidM45SE2700:46:1512,973 km/h00:04:38
48948MIRANDABrunoM46SE2800:46:2612,922 km/h00:04:39
49701NOROFrancois-XavierM47SE2900:46:3412,885 km/h00:04:39
50971FLOHIMONTJeanM48SE3000:46:3512,880 km/h00:04:40
51706LEYENSPierreM49V11000:46:4112,853 km/h00:04:40
52689PASQUAZZOYannickM50SE3100:46:4812,821 km/h00:04:41
53781PIRSONLaurentM51SE3200:47:0712,734 km/h00:04:43
54666BIEUWLETJeromeM52SE3300:47:2412,658 km/h00:04:44
55695GEORISEvelyneF3DA300:47:2412,658 km/h00:04:44
56920LEKEUGilbertM53V2300:47:4112,583 km/h00:04:46
57814CARPENTIERThierryM54SE3400:47:5612,517 km/h00:04:48
58646BENGLERNatachaF4A1100:48:1612,431 km/h00:04:50
59645DA SILVATonyM55V11100:48:1712,427 km/h00:04:50
60817STERCKXArnaudM56SE3500:48:2512,392 km/h00:04:50
61697LEROINELucM57V11200:48:2812,380 km/h00:04:51
62661CAJOTChristianM58V11300:48:3112,367 km/h00:04:51
63898PRZYBYLSKIEricM59V11400:48:4412,312 km/h00:04:52
64711RENSONPierreM60SE3600:48:4812,295 km/h00:04:53
65902ELOYOlivierM61SE3700:48:5212,278 km/h00:04:53
66916COLMONTGregoryM62SE3800:49:1512,183 km/h00:04:55
67914SYNEJeremyM63SE3900:49:1612,179 km/h00:04:56
681000BURETTESmuelM64SE4000:49:2212,154 km/h00:04:56
69926VAN VLAENDERENGuillaumeM65EG700:49:3712,093 km/h00:04:58
70927VAN VLAENDERENRaphaelM66V11500:49:3812,089 km/h00:04:58
71899PEETERSRenaudM67V11600:49:4612,056 km/h00:04:59
72622DRIESSENSStephaneM68V11700:49:5312,028 km/h00:04:59
73816MERETHPierreM69SE4100:50:0012,000 km/h00:05:00
74882THEODOREJeanM70V2400:50:0311,988 km/h00:05:00
75789GODINMichaelM71SE4200:50:0611,976 km/h00:05:01
76702PIRLOTXavierM72SE4300:50:0811,968 km/h00:05:01
77934LAFALIZEAurelieF5DA400:50:1111,956 km/h00:05:01
78800DAVIDVincentM73V11800:50:1211,952 km/h00:05:01
79627SCHNEYDERSMichelM74V11900:50:1311,948 km/h00:05:01
80643CLOOSJean-MarieM75SE4400:50:1311,948 km/h00:05:01
81886POSLONAlainM76V12000:50:1711,932 km/h00:05:02
82771SPRONCKLaurentM77SE4500:50:3011,881 km/h00:05:03
83700MAURYGillesM78V12100:50:3011,881 km/h00:05:03
84896CORNETDenisM79V12200:50:3111,877 km/h00:05:03
85917MINGUETOlivierM80SE4600:50:3911,846 km/h00:05:04
86978MOSSAMAlexisM81SE4700:50:4811,811 km/h00:05:05
87869CORNETDenisM82V12300:50:5711,776 km/h00:05:06
88777DEWULFNonoF6A1200:51:2011,688 km/h00:05:08
89980EVERAERTBenjaminM83SE4800:51:3111,647 km/h00:05:09
90979DELSAUTEVincentM84V12400:51:3111,647 km/h00:05:09
91959HUBINFrancoisM85V12500:51:3111,647 km/h00:05:09
92930MORAYDidierM86V2500:51:3411,635 km/h00:05:09
93660FEHERVARIPierreM87SE4900:51:3911,617 km/h00:05:10
94991CREUVEMichelM88SE5000:51:4011,613 km/h00:05:10
95698MARQUETChristopheM89SE5100:51:4411,598 km/h00:05:10
96632FRAGNIERJeromeM90SE5200:51:4511,594 km/h00:05:11
97658CHANETMarieF7DA500:51:4811,583 km/h00:05:11
98659LALYUgoM91SE5300:52:0711,513 km/h00:05:13
99678SALMONThomasM92SE5400:52:1011,502 km/h00:05:13
100903KOOLSGregoryM93V12600:52:2611,443 km/h00:05:15
101932SCHYNTSLaetitiaF8DA600:52:2611,443 km/h00:05:15
102923LEROYJordanM94SE5500:52:5011,356 km/h00:05:17
103773JULEMONTBertrandM95SE5600:52:5811,328 km/h00:05:18
104611VERDINMaximeM96SE5700:53:1811,257 km/h00:05:20
105945COLLAROLDavidM97SE5800:53:2511,232 km/h00:05:20
106618SOMJALaureF9DA700:53:2611,229 km/h00:05:21
107994COLLINGEAntoinetteF10DA800:53:3211,208 km/h00:05:21
108995DEDOYARDNoelM98V12700:53:3311,204 km/h00:05:21
109667OTTOVincentM99V12800:53:3611,194 km/h00:05:22
110634FUDVOYEJulieF11DA900:53:3811,187 km/h00:05:22
111642CLOOSOlivierM100SE5900:53:4511,163 km/h00:05:23
112960AGASTASofiaF12A1300:53:5311,135 km/h00:05:23
113686BERTRANDAudreyF13DA1000:53:5511,128 km/h00:05:23
114798RUTHValerieF14DA1100:53:5811,118 km/h00:05:24
115992LHOISTGillesM101V12900:54:0511,094 km/h00:05:25
116606JADINGeraldineF15A1400:54:1411,063 km/h00:05:25
117677RENIERAlainM102SE6000:54:1411,063 km/h00:05:25
118815CARPENTIERChristopheM103SE6100:54:2011,043 km/h00:05:26
119612BERTHOLETMarvinM104SE6200:54:2111,040 km/h00:05:26
120877DOFFAGNEPierreM105SE6300:54:3510,992 km/h00:05:28
121779KAIRISCecileF16A1500:55:0210,902 km/h00:05:30
122692DEMASYEmilieF17DA1200:55:0610,889 km/h00:05:31
123996ZIMMERPaulM106SE6400:55:1510,860 km/h00:05:32
124811SOLRudyM107V2600:55:2310,834 km/h00:05:32
125951WAXWEILEREmmanuelM108SE6500:55:3210,804 km/h00:05:33
126872FOGESAnaisF18DA1300:55:4710,756 km/h00:05:35
127669NOEZStephanieF19A1600:55:5410,733 km/h00:05:35
128984STOCKERTGenevieveF20A1700:55:5410,733 km/h00:05:35
129871RASERALorenzoM109V13000:56:1410,670 km/h00:05:37
130941PIELARudyM110SE6600:56:1610,664 km/h00:05:38
131812SAUVAGEReneM111V2700:56:4110,585 km/h00:05:40
132888EHLENXavierM112V13100:57:0810,502 km/h00:05:43
133665MELONSimonM113SE6700:57:1710,474 km/h00:05:44
134787ABINETEstelleF21DA1400:57:1910,468 km/h00:05:44
135911SERVILLEChantalF22A1800:57:2010,465 km/h00:05:44
136975LAMALLEAuroreF23DA1500:57:4610,387 km/h00:05:47
137972THONONGuillaumeM114SE6800:57:4810,381 km/h00:05:47
138879THEODOREJonathanM115SE6900:57:4910,378 km/h00:05:47
139605BANNEUXChristelleF24DA1600:59:0010,169 km/h00:05:54
140998ROLLENRaphaelleF25EF100:59:0010,169 km/h00:05:54
141964DNITRIEVENatalieF26A1900:59:2910,087 km/h00:05:57
142807BERGERSeverineF27DA1700:59:4810,033 km/h00:05:59
143801WAUFREIDDamienM116SE7000:59:4910,031 km/h00:05:59
144955AZZOLINIDeborahF28DA1800:59:5110,025 km/h00:05:59
145953FRANKINETArthurM117HC200:59:5410,017 km/h00:05:59
146796COLARDSandrineF29DA1901:00:189,950 km/h00:06:02
147780MINGUETChristelF30DA2001:00:459,877 km/h00:06:04
148925ROTONNOStefanoM118SE7101:00:599,839 km/h00:06:06
149681PETITPASElodieF31EF201:01:379,738 km/h00:06:10
150928PETITPASMarcM119V2801:01:389,735 km/h00:06:10
151808JONNIAUXJean-LucM120V2901:01:389,735 km/h00:06:10
152784WILMETJeromeM121SE7201:02:119,649 km/h00:06:13
153783MILCAMPSJulienM122SE7301:02:129,646 km/h00:06:13
154687SOTTIAUXAuroreF32DA2101:02:289,605 km/h00:06:15
155986LECLAUXClaraF33EF301:02:319,597 km/h00:06:15
156901QUOILINNicolasM123SE7401:02:359,587 km/h00:06:16
157803COUNSONMyriamF34EF401:02:439,567 km/h00:06:16
158944PRILNicolasM124SE7501:02:519,547 km/h00:06:17
159710LE BOULENOEDelphineF35DA2201:03:129,494 km/h00:06:19
160895RANDAXHERomainM125SE7601:04:099,353 km/h00:06:25
161893RANDAXHEViolaineF36DA2301:04:129,346 km/h00:06:25
162878NOELJulienM126SE7701:04:139,343 km/h00:06:25
163795RAVATUSOLaurentM127SE7801:04:379,286 km/h00:06:28
164794FERRAUMichaelM128V13201:04:409,278 km/h00:06:28
165797LIMBOURGVeroniqueF37A11001:04:479,262 km/h00:06:29
166809SONNETSandrineF38DA2401:05:119,205 km/h00:06:31
167990TALBOTVanessaF39DA2501:05:119,205 km/h00:06:31
168790FREREMurielF40A11101:05:499,116 km/h00:06:35
169999BODSONSophieF41A11201:06:099,070 km/h00:06:37
170989FAUVILLECatherineF42A11301:06:109,068 km/h00:06:37
171782HEMMERLINMichaelM129V13301:06:279,029 km/h00:06:39
172935SOUGNEZTamaraF43DA2601:06:438,993 km/h00:06:40
173938DELREAnnickF44A11401:06:448,991 km/h00:06:40
174679BALTHAZARTFranceF45A2101:06:488,982 km/h00:06:41
175956DEVROUFlorenceF46A11501:06:498,980 km/h00:06:41
176671LEJEUNEElodieF47DA2701:06:538,971 km/h00:06:41
177674LAFALIZELaurenceF48A11601:06:548,969 km/h00:06:41
178891CALLEBAUTMarie-CatherineF49A11701:06:588,960 km/h00:06:42
179624WILKINPatriciaF50DA2801:07:238,904 km/h00:06:44
180873CHARLIERChristelF51A11801:07:328,885 km/h00:06:45
181875CORNETIngridF52A11901:07:348,880 km/h00:06:45
182874CHRISTOPHEVincentM130V13401:07:358,878 km/h00:06:45
183792DUCHENEBolifM131HC301:07:488,850 km/h00:06:47
184713BAIVIERMaxineM132SE7901:07:508,845 km/h00:06:47
185712RERVEVictoriaF53DA2901:07:548,837 km/h00:06:47
186682PETITPASAurelieF54EF501:08:018,821 km/h00:06:48
187885FRANQUETVincianeF55A12001:08:178,787 km/h00:06:50
188900PORTAROSabrinaF56DA3001:08:228,776 km/h00:06:50
189604BEMILMANSVanessaF57DA3101:08:598,698 km/h00:06:54
190913LATHOUWERSChiaraF58EF601:12:158,304 km/h00:07:13
191608GILSONAdrienM133SE8001:12:168,303 km/h00:07:14
192703DEHARENGMaloryM134EG801:15:467,919 km/h00:07:35
193949ZANZENMaureenF59DA3201:15:507,912 km/h00:07:35
194704DEHARENGDimitriM135SE8101:15:517,910 km/h00:07:35
195649CABARTEUXNancyF60A12101:19:137,574 km/h00:07:55
196889DAMBLONElodieF61DA3301:19:147,573 km/h00:07:55
197793HAVELENJENedeF62A12201:23:517,156 km/h00:08:23
198683MOORENSandrineF63DA3401:37:496,134 km/h00:09:47
199684MOORENFabienneF64A12301:37:496,134 km/h00:09:47
200904MARECHALGillesM136EG900:24:021 tour (5 km)
201668OTTOSylvainM137EG1000:25:431 tour (5 km)
202983LECLOUXCamilleF65HC100:26:261 tour (5 km)
203997PETITDomyM138SE8200:27:301 tour (5 km)
204982LELOUXPhilippeM139EG1100:28:491 tour (5 km)
205884DONNEAUXBorisM140HC400:34:161 tour (5 km)
206676JORISAnneF66A12400:36:491 tour (5 km)
207786MATAGNEAndreM141V21000:37:411 tour (5 km)
208628PINETArletteF67A3100:37:461 tour (5 km)
209785DASSEMicheleF68A3200:37:481 tour (5 km)
210629BASAROCCOMarie-ClaireF69A3300:37:491 tour (5 km)
211965DNITRIEVECatherineF70EF700:39:231 tour (5 km)
212776OTTOEmmaF71EF800:39:231 tour (5 km)
213607LECLERCQEvaF72EF900:39:241 tour (5 km)
214987GILETElisabethF73A12500:39:511 tour (5 km)
215981BLOCKDominiqueF74A12600:39:521 tour (5 km)
216694LAMGGildaF75A2200:39:531 tour (5 km)
217699AL AZZEHSarahF76DA3500:41:061 tour (5 km)
218799MONARDAudreyF77DA3600:41:061 tour (5 km)
219788GAURAYVincianneF78A12700:45:491 tour (5 km)
220915VINAIMONTEricM142V13500:50:271 tour (5 km)
221887LAFOURTEJeromeM143SE8300:53:291 tour (5 km)

Titre